Location: *
(37.5724°S, 58.0067°E)
Time: 09:36:38
(UTC+00:00)

CZ-2C R/B - Pass Details

Date: 26 September 2020
Orbit: 785 x 870 km, 98.2° (Epoch: 29 October)

Event Time Altitude Azimuth Distance (km) Brightness Sun altitude
Rises 15:28:45 0° 358° (N) 3,427 5.7 -16.6°
Reaches altitude 10° 15:31:13 10° 352° (N) 2,490 5.1 -17.0°
Maximum altitude 15:36:32 47° 279° (W) 1,120 3.7 -18.0°
Drops below altitude 10° 15:41:49 10° 205° (SSW) 2,471 5.7 -19.0°
Sets 15:44:16 0° 199° (SSW) 3,399 6.4 -19.5°
